sat.trackr.live / text

‹ back to catalog

STARLINK-34837

NORAD 65423 · 2025-192V

PAYLOAD ACTIVE UNKNOWN

§ Identity

Operator
Country
US
Launch date
2025-08-31
Launch site
AFETR
Launch vehicle
Mass (kg)
RCS (m²)

Purposes: comms

External: N2YO · Heavens-Above · Gunter

§ Orbital elements

Epoch: 2026-05-24T23:00:16.193664Z

Period
94.01 min
Inclination
53.1564°
Eccentricity
0.0000737
Mean motion
15.31717891 rev/d
Perigee alt
470.2 km
Apogee alt
471.2 km
Semi-major
6,848.8 km
B*
4.8256e-4
RAAN
237.9235°
Arg perigee
74.9645°
Mean anomaly
285.1438°
Rev number
4,106

§ Raw data

STARLINK-348371 65423U 25192V   26144.95852076  .00014647  00000+0  48256-3 0  99972 65423  53.1564 237.9235 0000737  74.9645 285.1438 15.31717891 41064

JSON: /api/v1/satellites/65423 · /tle

For live sub-satellite position, see the globe view (requires WebGL).

§ Visibility from observer

Set your observer location to see the next 7 days of passes ≥ 10°. The values pass through the URL so the page stays shareable.

No JS? Fill the form by hand. The geolocation button needs JavaScript.